Regional Weather Roundup
Issued by NWS Sioux Falls, SD

Home | Current Version | Previous Version | Graphics & Text | Print | Product List | Glossary Off
Versions: 1 2 3 4 5 6 7 8 9 10 11 12 13 14 15 16 17 18 19 20 21 22 23 24 25 26 27 28 29 30 31 32 33 34 35 36 37 38 39 40 41 42 43 44 45 46 47 48 49 50

000
ASUS43 KFSD 230702
RWRFSD

WEATHER ROUNDUP FOR SE SOUTH DAKOTA/SW MINNESOTA/NW IOWA
NATIONAL WEATHER SERVICE SIOUX FALLS SD
200 AM CDT MON OCT 23 2017

NOTE: "FAIR" INDICATES FEW OR NO CLOUDS BELOW 12,000 FEET WITH NO
SIGNIFICANT WEATHER AND OR OBSTRUCTIONS TO VISIBILITY.


SDZ038>040-050-052>070-230800-
SOUTHEAST SOUTH DAKOTA

CITY           SKY/WX    TMP DP  RH WIND       PRES   REMARKS
BROOKINGS      CLOUDY    51  35  54 S8        29.81S
CHAMBERLAIN    MOCLDY    56  42  60 NW8       29.91R
HURON          CLOUDY    53  40  61 NW12      29.83R
MADISON        PTSUNNY   52  32  46 W12G22    29.82R
MITCHELL       PTCLDY    48  37  65 W7        29.84R
SIOUX FALLS    CLEAR     52  35  52 SW5       29.80F
WINNER         PTSUNNY   56  42  59 NW15      29.94R
YANKTON        PTCLDY    56  32  40 S7        29.81F
$$

MNZ071-072-080-081-089-090-097-098-230800-
SOUTHWEST MINNESOTA

CITY           SKY/WX    TMP DP  RH WIND       PRES   REMARKS
FAIRMONT       CLOUDY    50  36  58 S14       29.85F
JACKSON        CLEAR     46  34  61 S10       29.84F
LUVERNE        CLEAR     41  32  70 CALM      29.83F
MARSHALL       MOCLDY    56  33  42 SW14      29.78F
MONTEVIDEO     CLOUDY    54  36  50 SW15      29.76F
PIPESTONE      PTCLDY    46  32  57 S5        29.80F
REDWOOD FALLS  CLEAR     51  34  52 S8        29.79F
TRACY          CLOUDY    54  35  47 SW13      29.81S
WORTHINGTON    CLEAR     49  32  52 S10       29.83F
$$

IAZ001>003-012>014-020>022-031-032-NEZ013-014-SDZ071-230800-
NORTHWEST IOWA

CITY           SKY/WX    TMP DP  RH WIND       PRES   REMARKS
DENISON        PTCLDY    50  34  53 S7        29.92F
ESTHERVILLE    PTCLDY    44  37  76 S9        29.85F
LE MARS        PTCLDY    50  34  53 VRB7      29.84F
ORANGE CITY    PTCLDY    48  36  61 S7        29.84F
SHELDON        CLOUDY    48  32  53 S7        29.83F
SIOUX CITY     CLOUDY    43  36  76 E7        29.87F
SPENCER        CLEAR     45  34  65 S7        29.86F
STORM LAKE     CLEAR     45  36  70 S9        29.88F
$$

ABBREVIATIONS USED IN REMARKS
   TC - TEMPERATURE IN CELSIUS
  WCI - WIND CHILL INDEX
   HX - HEAT INDEX
  VSB - VISIBILITY




USA.gov is the U.S. government's official web portal to all federal, state and local government web resources and services.